Temp
12 12 11 11 11 11 10 11 11 10 10 10 10 10 10 11 10 10 7 7 6 6 7 6 6 6 5 6 6 7 8 8 9 8 9 10 10 10 10 10 10 10 9
12 12 12 12 11 12 12 11 11 10 10 10 9 10 10 10 10 9 8 9 8 7 6 6 6 6 7 7 7 6 6 7 9 9 9 9 10 10 10 9 9 9 9
11 11 11 11 12 12 11 11 10 11 10 10 10 9 10 10 10 10 10 8 9 10 10 10 7 8 7 9 10 9 9 9 8 9 10 10 10 10 9 9 9 9 9
11 11 11 11 11 12 11 11 11 11 11 11 10 10 10 10 9 9 10 10 9 8 9 11 11 11 11 11 11 11 11 11 11 11 10 10 10 10 10 9 9 9 9
11 11 11 11 11 11 11 11 11 11 11 11 11 11 10 10 10 10 10 9 9 10 10 9 9 10 11 11 11 11 11 11 11 11 11 11 10 10 10 9 9 9 9
10 10 11 11 10 11 11 11 11 11 12 11 12 11 10 10 10 10 10 9 9 9 9 9 9 10 11 10 11 11 11 11 11 11 11 11 10 10 10 10 10 9 9
10 10 11 10 10 11 11 11 11 11 11 11 11 10 10 9 9 10 10 10 10 9 8 8 9 9 10 9 9 10 11 11 10 10 11 11 11 10 10 10 10 10 9
11 10 11 10 10 11 11 10 10 11 11 11 10 11 11 11 10 9 9 10 9 10 9 9 9 9 9 9 10 10 10 11 11 10 9 10 11 10 10 10 10 10 10
11 11 12 11 10 11 11 10 10 10 10 10 9 11 12 13 13 11 10 9 10 9 9 10 9 9 10 10 9 10 12 12 11 11 10 10 10 10 10 10 9 10 9
11 11 10 11 11 12 10 10 10 10 10 10 10 9 11 11 13 13 11 11 12 10 10 10 10 10 10 10 12 12 12 12 12 11 11 10 10 10 10 10 10 10 10
12 11 11 10 11 11 11 10 10 10 10 10 10 10 10 10 10 10 12 12 11 11 11 11 12 11 10 10 11 12 12 12 11 11 11 11 10 10 9 9 10 10 10
12 12 11 11 10 10 11 11 10 10 10 10 10 11 10 10 10 11 11 11 12 12 11 11 11 11 10 10 10 11 11 11 12 11 11 11 11 11 10 10 9 9 9
11 12 12 11 11 10 10 11 11 11 11 11 10 10 11 11 11 11 11 11 12 12 12 11 11 11 10 11 11 11 12 12 12 12 11 11 11 11 11 11 10 10 10
11 11 12 12 11 11 11 10 10 10 10 10 10 10 10 10 10 10 10 11 11 12 12 12 11 11 11 11 12 12 12 12 12 12 11 11 11 11 11 10 10 10 10
11 11 11 12 11 11 11 11 11 11 10 10 11 11 10 10 10 10 10 11 11 11 12 13 13 13 12 11 11 12 12 13 12 12 11 11 11 11 11 11 11 11 11
11 11 11 11 11 11 11 11 11 11 11 11 11 11 11 10 10 10 10 10 10 11 11 11 12 12 12 12 11 11 11 11 12 12 12 12 12 12 11 11 11 11 11
11 11 10 10 11 11 11 10 10 10 10 11 11 11 11 10 10 10 10 10 10 10 10 12 11 11 11 11 11 10 11 10 11 12 12 12 13 12 11 11 11 11 11
11 11 11 10 9 10 11 11 11 9 10 10 10 10 10 10 10 11 11 10 11 11 10 10 11 11 11 11 10 10 11 10 10 10 10 10 12 12 12 11 11 11 11
11 10 10 10 10 10 10 11 9 10 10 10 9 10 10 10 10 11 10 11 10 11 10 10 10 10 10 10 10 10 10 10 10 11 10 11 11 11 12 12 11 11 11
10 10 10 9 10 10 10 10 9 10 10 10 10 10 10 10 10 11 10 10 10 10 10 9 10 10 10 10 10 10 10 11 10 10 10 10 11 11 12 13 12 12 12
9 9 10 10 10 10 10 10 10 10 10 10 10 10 10 10 10 10 10 10 10 10 9 9 10 9 10 10 10 9 10 9 9 9 10 10 10 10 10 12 12 12 12
8 8 8 8 8 9 9 10 10 10 10 10 10 10 10 10 10 10 10 10 10 10 10 10 9 10 9 9 9 9 9 9 9 9 9 9 9 9 10 10 9 9 11
7 6 6 6 6 8 9 9 9 9 9 9 9 9 9 9 9 9 9 10 9 9 9 9 9 9 9 9 9 9 9 9 9 9 9 9 9 9 9 10 10 10 9
6 6 6 5 5 7 8 9 9 9 9 9 7 7 8 8 8 9 9 9 9 9 9 9 8 8 8 8 8 7 7 8 8 9 8 8 8 8 9 8 8 9 9
3 4 5 4 5 6 7 8 8 8 6 6 7 7 7 8 8 8 8 7 7 8 8 8 8 8 8 7 7 6 6 6 6 7 6 7 7 7 7 8 8 8 8
3 3 3 3 3 3 4 6 6 7 6 5 6 6 6 6 6 7 7 7 7 7 7 8 8 8 7 7 6 4 3 3 4 5 4 4 6 5 4 5 7 7 7
Height
1583 1583 1587 1588 1590 1591 1590 1593 1595 1594 1594 1596 1597 1598 1599 1600 1601 1601 1597 1595 1596 1597 1598 1599 1598 1599 1598 1598 1597 1597 1598 1598 1598 1598 1597 1597 1597 1598 1598 1598 1597 1597 1596
1582 1584 1587 1588 1589 1592 1593 1593 1594 1595 1595 1596 1597 1598 1599 1599 1601 1600 1599 1595 1595 1596 1597 1598 1598 1598 1598 1598 1598 1597 1597 1597 1597 1597 1597 1597 1597 1597 1597 1597 1597 1597 1596
1578 1582 1585 1587 1588 1591 1593 1593 1593 1595 1596 1597 1597 1597 1598 1599 1600 1601 1602 1599 1596 1596 1596 1596 1597 1597 1597 1597 1597 1597 1596 1596 1596 1596 1596 1596 1596 1596 1596 1596 1596 1596 1595
1576 1579 1583 1585 1588 1589 1592 1593 1593 1595 1596 1598 1598 1599 1599 1599 1599 1599 1601 1603 1600 1598 1597 1596 1596 1597 1597 1597 1596 1596 1596 1596 1595 1595 1595 1595 1594 1594 1594 1594 1594 1594 1594
1576 1579 1581 1584 1587 1589 1590 1592 1594 1595 1596 1597 1598 1599 1599 1599 1599 1599 1600 1599 1600 1600 1599 1596 1596 1595 1595 1595 1595 1595 1594 1593 1593 1593 1593 1593 1593 1592 1592 1592 1592 1592 1591
1574 1575 1579 1583 1584 1587 1589 1591 1592 1594 1596 1597 1598 1598 1598 1599 1599 1598 1598 1598 1598 1597 1597 1595 1594 1593 1593 1593 1593 1592 1591 1591 1591 1590 1590 1590 1590 1590 1590 1590 1589 1589 1589
1569 1572 1577 1579 1582 1585 1587 1589 1590 1592 1594 1595 1596 1597 1597 1595 1595 1596 1596 1597 1597 1596 1595 1594 1595 1596 1592 1592 1591 1590 1589 1588 1588 1587 1587 1587 1587 1586 1586 1586 1586 1585 1584
1567 1569 1573 1574 1577 1581 1584 1586 1588 1590 1591 1593 1593 1595 1595 1595 1591 1590 1592 1593 1593 1594 1593 1592 1591 1590 1591 1588 1586 1586 1586 1585 1585 1585 1584 1583 1583 1583 1583 1582 1582 1581 1580
1564 1566 1568 1571 1573 1576 1578 1581 1583 1586 1588 1590 1589 1592 1593 1591 1589 1588 1587 1588 1590 1589 1589 1590 1588 1586 1585 1585 1586 1582 1582 1582 1581 1580 1580 1580 1579 1579 1578 1578 1577 1576 1576
1560 1563 1564 1567 1569 1570 1573 1576 1580 1581 1584 1587 1587 1587 1588 1589 1589 1587 1586 1585 1585 1585 1584 1584 1584 1583 1582 1581 1580 1580 1578 1578 1578 1577 1576 1575 1575 1574 1573 1572 1572 1571 1571
1552 1557 1559 1562 1565 1567 1569 1572 1575 1577 1580 1583 1584 1585 1586 1586 1586 1585 1585 1583 1581 1581 1581 1580 1579 1578 1578 1577 1575 1575 1574 1574 1573 1572 1571 1570 1569 1569 1568 1566 1565 1565 1564
1547 1550 1554 1557 1559 1563 1564 1567 1570 1572 1575 1577 1580 1582 1582 1583 1582 1582 1582 1581 1581 1581 1578 1577 1576 1574 1574 1574 1572 1570 1570 1569 1568 1566 1565 1564 1563 1562 1561 1560 1560 1559 1558
1540 1543 1547 1550 1553 1557 1560 1561 1564 1566 1568 1571 1573 1576 1578 1578 1579 1579 1578 1577 1577 1576 1575 1573 1573 1572 1570 1569 1567 1566 1565 1563 1561 1559 1558 1557 1555 1555 1554 1553 1553 1552 1551
1535 1536 1540 1544 1548 1551 1554 1557 1560 1561 1563 1564 1566 1568 1571 1572 1572 1573 1574 1574 1572 1569 1569 1568 1566 1564 1564 1562 1560 1559 1557 1555 1554 1553 1551 1550 1549 1548 1546 1546 1545 1544 1543
1528 1529 1533 1538 1542 1545 1546 1550 1552 1554 1557 1558 1559 1561 1562 1564 1567 1568 1568 1568 1568 1565 1561 1562 1562 1561 1557 1555 1552 1551 1549 1549 1547 1546 1545 1543 1541 1540 1539 1537 1536 1535 1534
1523 1523 1526 1532 1536 1538 1541 1543 1545 1547 1547 1550 1551 1553 1555 1557 1559 1560 1562 1562 1562 1560 1555 1556 1554 1555 1554 1551 1548 1545 1541 1539 1538 1536 1535 1533 1531 1530 1528 1528 1527 1526 1525
1516 1515 1522 1527 1529 1531 1531 1532 1537 1542 1540 1542 1533 1545 1549 1551 1553 1554 1555 1555 1554 1554 1551 1544 1547 1546 1546 1544 1542 1540 1536 1531 1527 1525 1523 1522 1520 1520 1518 1518 1517 1516 1516
1511 1515 1514 1522 1526 1524 1525 1529 1528 1530 1537 1535 1538 1538 1538 1546 1547 1548 1548 1548 1546 1546 1544 1540 1539 1539 1539 1537 1535 1533 1529 1526 1522 1518 1516 1512 1510 1508 1508 1507 1506 1505 1504
1506 1510 1514 1520 1522 1520 1520 1524 1522 1523 1529 1530 1531 1532 1534 1538 1540 1539 1540 1533 1538 1538 1538 1534 1530 1531 1531 1530 1528 1525 1521 1518 1515 1511 1508 1504 1501 1499 1496 1495 1495 1494 1493
1504 1507 1511 1513 1515 1517 1518 1519 1519 1523 1526 1526 1526 1528 1532 1533 1532 1533 1532 1531 1531 1531 1530 1528 1525 1523 1522 1521 1520 1517 1512 1509 1504 1502 1498 1495 1491 1488 1485 1483 1484 1483 1482
1501 1504 1507 1509 1511 1512 1514 1515 1517 1517 1520 1522 1523 1525 1526 1527 1527 1526 1527 1527 1526 1525 1524 1521 1518 1516 1513 1514 1511 1508 1502 1499 1493 1492 1487 1484 1482 1479 1476 1471 1469 1468 1468
1499 1501 1503 1506 1509 1508 1510 1512 1513 1513 1515 1517 1518 1520 1520 1521 1521 1520 1521 1521 1521 1519 1517 1514 1509 1507 1508 1506 1504 1500 1494 1492 1481 1486 1478 1470 1473 1468 1466 1465 1461 1456 1455
1496 1500 1503 1506 1504 1502 1506 1507 1508 1509 1509 1511 1513 1513 1515 1515 1513 1513 1514 1514 1514 1513 1512 1509 1504 1502 1501 1500 1498 1492 1488 1482 1474 1472 1470 1459 1461 1454 1455 1451 1449 1447 1443
1494 1498 1499 1500 1497 1499 1499 1501 1503 1504 1505 1508 1508 1507 1508 1507 1505 1506 1506 1505 1505 1505 1503 1502 1498 1496 1494 1492 1488 1483 1479 1474 1468 1463 1461 1451 1450 1443 1442 1437 1433 1431 1429
1488 1491 1492 1495 1494 1496 1497 1497 1498 1499 1502 1502 1501 1502 1502 1501 1499 1499 1499 1498 1497 1496 1495 1494 1493 1490 1487 1483 1479 1474 1472 1467 1458 1450 1450 1445 1437 1432 1428 1420 1419 1417 1415
1485 1488 1490 1492 1492 1493 1494 1495 1495 1495 1497 1499 1496 1496 1498 1497 1495 1494 1494 1491 1489 1488 1487 1485 1484 1481 1479 1475 1472 1469 1466 1461 1455 1442 1442 1438 1431 1427 1414 1411 1408 1406 1403
Wind_Speed
13 7 11 12 9 11 8 8 8 8 8 8 7 7 8 8 7 5 5 9 9 8 7 7 5 5 2 3 3 4 3 3 3 3 3 3 3 2 2 1 1 2 3
13 13 13 12 10 11 10 10 8 7 7 7 7 8 7 6 7 6 5 5 8 8 8 8 3 6 5 6 4 4 4 5 4 4 4 4 4 4 4 3 2 2 2
16 13 13 13 13 12 12 10 10 8 7 7 7 7 7 8 6 7 6 6 4 5 4 5 7 5 6 5 5 6 7 7 7 7 6 7 7 7 6 6 5 5 5
14 14 13 14 14 14 13 11 10 9 8 7 7 7 7 7 9 8 8 8 6 7 10 6 4 6 6 6 7 6 8 8 8 8 9 9 10 10 9 9 9 9 8
16 15 12 13 17 14 13 12 10 10 9 8 8 8 7 7 8 8 9 10 11 12 9 15 14 11 9 8 9 9 9 10 10 10 11 11 12 12 12 12 12 11 11
17 16 13 14 17 14 14 13 11 10 10 8 7 8 7 8 9 9 10 10 10 12 13 14 15 12 9 10 11 11 11 12 13 12 12 13 13 14 14 15 15 14 14
18 19 15 17 17 16 14 15 12 12 12 11 9 9 9 11 12 11 11 11 12 14 13 13 14 12 19 17 16 15 14 13 14 16 16 14 14 15 15 16 17 17 17
21 19 19 18 20 17 17 15 15 12 13 13 12 8 9 11 13 15 14 14 15 13 14 16 15 16 15 19 20 16 16 16 16 17 18 19 18 18 18 18 18 19 19
25 24 23 20 21 21 19 19 18 16 13 15 16 9 7 9 5 10 13 14 17 16 16 18 19 18 17 17 20 24 18 16 18 18 19 21 22 22 21 21 21 20 21
27 25 25 26 24 21 22 20 18 17 17 17 14 18 17 8 6 6 9 12 11 15 16 15 18 19 18 18 17 17 19 16 16 18 20 22 24 25 26 25 24 24 24
29 30 26 26 26 24 22 22 19 20 19 18 18 15 17 16 17 12 10 10 12 11 14 18 17 18 18 20 18 17 16 17 18 19 21 23 23 25 27 29 29 28 28
30 32 32 30 27 28 25 24 24 23 22 20 19 18 16 15 16 15 16 16 15 14 16 16 18 19 19 21 23 22 22 22 21 22 23 25 26 27 27 28 29 31 31
35 32 33 32 28 28 27 26 26 26 25 24 25 22 20 20 17 15 16 17 18 18 20 24 24 20 23 26 25 25 25 24 24 26 26 28 29 29 30 30 30 30 31
33 34 30 30 33 31 28 28 30 28 26 27 27 28 24 23 21 20 22 18 20 21 22 26 25 23 24 26 29 24 27 27 27 26 28 31 31 32 33 34 33 34 34
31 35 35 32 29 32 32 32 32 33 30 30 31 30 30 30 26 25 23 23 23 26 27 23 22 22 26 26 30 30 30 27 29 31 32 33 33 37 37 36 35 37 38
33 29 28 26 30 29 24 33 32 34 36 36 36 32 30 28 28 29 29 28 28 29 33 25 26 25 26 27 29 32 37 39 37 36 34 34 37 40 40 41 40 41 41
22 33 17 31 30 23 31 24 23 25 30 44 32 31 31 29 28 28 30 31 32 32 33 40 31 30 28 33 35 32 33 38 42 40 39 35 36 36 39 41 42 41 42
17 20 13 26 31 30 31 43 53 45 30 28 32 39 38 36 34 34 34 36 36 38 38 38 40 35 33 31 33 35 37 32 32 36 38 40 36 38 36 38 41 42 43
23 27 29 26 22 21 23 31 25 29 32 28 33 36 35 32 30 30 34 37 38 38 37 40 40 39 36 33 34 35 35 37 40 38 36 37 39 40 40 43 41 38 40
24 25 28 26 24 26 28 25 24 18 21 17 17 18 31 36 33 38 36 37 33 33 34 35 39 40 40 40 39 42 45 44 43 41 38 39 41 42 40 39 42 45 45
18 20 18 18 19 22 16 17 21 20 26 25 22 22 26 30 28 29 30 32 33 34 34 34 33 35 34 35 40 42 43 45 47 44 45 41 40 39 42 44 44 45 46
11 11 13 12 11 19 22 24 23 23 22 19 19 20 19 20 27 25 26 26 28 29 33 39 36 34 39 40 41 43 43 47 46 41 40 43 39 42 41 39 43 51 51
12 7 6 5 12 20 19 22 24 25 25 24 23 23 25 24 22 24 29 30 30 31 33 33 36 34 37 35 38 41 42 44 49 49 43 54 45 52 52 48 53 51 50
7 5 10 13 19 21 20 20 21 22 20 18 18 21 21 25 27 29 29 29 30 31 32 33 35 38 38 38 36 37 41 45 47 51 45 45 49 48 49 52 53 56 51
14 16 18 17 17 14 14 11 8 7 7 12 18 18 19 21 23 24 24 25 26 28 30 32 33 36 37 38 39 40 38 33 40 49 38 37 46 50 51 55 52 51 51
10 10 10 8 7 5 4 1 1 3 4 5 9 13 14 17 20 22 23 24 24 26 28 30 30 33 32 33 32 30 33 37 41 47 36 33 39 38 41 38 38 42 44
Wind_Direction
169 172 174 191 176 177 166 170 191 168 167 167 164 160 147 157 156 158 178 164 168 155 152 169 182 184 172 166 194 185 177 173 179 199 204 195 194 181 156 125 62 34 32
183 181 190 191 179 189 186 182 180 177 161 179 175 171 166 162 153 175 195 198 174 183 184 186 225 199 200 216 215 219 218 217 229 222 223 230 237 236 230 236 252 285 312
195 182 191 190 188 190 190 179 177 176 181 179 187 185 180 180 186 171 190 244 249 223 215 217 211 234 232 249 237 254 245 239 242 241 243 247 247 249 255 261 263 271 282
206 189 194 195 195 190 188 188 182 184 186 191 196 203 192 201 195 194 186 197 249 271 298 260 273 267 264 263 262 261 260 260 261 260 252 250 252 257 260 262 265 269 274
208 197 191 202 202 194 191 193 197 197 197 194 207 206 202 214 224 213 213 217 214 205 275 280 287 276 264 263 269 273 272 268 260 264 265 262 262 262 264 267 268 270 273
212 201 192 203 202 198 199 200 201 209 211 211 213 220 220 221 227 223 231 231 233 233 214 259 278 275 259 274 271 267 271 276 273 266 265 263 262 267 271 272 274 275 274
220 211 197 200 204 200 200 206 208 209 212 215 215 232 241 236 229 231 237 236 238 238 237 231 232 248 280 288 281 271 266 270 270 271 270 268 268 267 271 274 276 277 276
224 218 202 209 210 201 206 211 208 210 212 216 209 230 247 251 248 243 231 239 238 237 245 244 240 242 232 270 282 278 270 269 271 270 271 277 277 275 274 275 277 277 278
219 223 219 208 218 199 211 211 213 210 218 222 218 216 233 250 230 252 250 237 234 242 238 241 247 253 252 249 243 267 278 269 269 269 268 269 276 279 280 278 280 280 278
228 229 229 217 223 222 206 224 218 215 214 230 235 229 230 246 238 227 232 252 247 241 245 239 245 261 258 260 267 266 276 283 277 275 274 272 270 272 276 279 280 281 281
228 218 229 233 224 227 219 211 219 230 224 226 239 240 245 246 245 251 265 254 261 264 258 270 254 250 259 263 262 271 273 279 280 277 275 275 274 273 271 273 276 278 280
227 226 220 226 233 225 225 227 225 227 229 228 234 239 239 244 244 245 253 259 260 262 269 280 271 265 253 258 270 270 272 277 277 277 276 274 272 272 272 272 271 273 275
232 225 222 223 225 235 227 233 239 238 240 240 230 234 240 242 242 243 252 256 263 265 263 258 246 255 254 275 275 280 285 280 277 274 274 272 272 271 271 271 271 271 272
253 234 227 228 233 233 241 234 226 235 241 242 245 237 237 242 243 244 246 255 262 265 264 262 270 287 281 273 274 275 272 273 276 274 274 273 272 270 269 268 269 270 269
253 241 237 237 238 240 240 243 249 243 234 242 248 248 243 242 241 247 248 248 254 266 266 268 268 271 276 286 284 289 287 276 277 281 275 278 269 267 268 269 270 269 268
254 229 232 236 246 244 242 239 246 261 248 258 246 250 253 252 249 248 249 252 251 256 267 267 268 267 264 264 267 280 287 291 289 286 277 275 273 270 268 267 270 272 273
242 242 240 251 256 248 235 235 248 270 269 267 242 248 247 252 254 253 252 254 255 257 257 279 273 276 277 273 277 276 277 277 285 288 295 279 273 281 272 267 266 268 271
220 228 216 246 261 264 249 248 256 254 280 275 267 246 256 256 258 260 265 258 258 260 259 260 271 273 273 278 277 281 285 290 293 287 287 286 281 281 279 274 270 269 269
224 224 238 242 258 264 246 244 246 239 262 261 257 246 262 267 269 274 270 264 265 263 265 266 270 271 278 280 282 278 281 285 290 295 291 288 287 284 277 276 270 272 274
228 233 237 249 254 249 246 245 241 248 244 263 263 251 248 258 263 263 271 270 269 273 276 276 279 281 286 292 288 287 290 292 293 296 294 293 291 291 285 278 271 276 276
220 229 234 245 248 234 236 244 243 251 244 251 258 260 247 259 268 271 276 275 275 283 284 284 283 285 283 289 289 295 290 296 295 295 296 292 288 287 287 287 284 280 286
219 230 239 238 241 247 244 241 241 242 246 250 252 261 268 272 272 272 274 277 281 286 288 279 282 284 289 292 294 292 296 291 285 288 291 290 292 290 287 282 282 288 292
208 210 225 229 229 244 245 244 248 250 254 256 263 270 273 273 271 272 275 279 281 283 285 291 293 288 291 297 295 294 292 287 286 289 293 294 286 292 289 288 292 288 290
179 175 204 201 236 246 253 258 261 265 268 273 270 263 262 273 278 281 286 287 287 286 281 282 281 286 289 290 290 293 294 294 286 287 290 288 291 285 287 287 287 287 288
197 197 212 224 242 255 267 282 272 254 233 247 262 268 273 279 281 284 287 288 292 293 291 288 290 290 290 294 296 296 301 305 302 298 305 299 300 294 290 289 289 285 288
188 197 223 239 267 291 303 150 175 173 181 199 271 268 267 272 276 280 286 289 292 298 302 298 298 297 300 301 303 303 299 297 293 295 295 297 292 296 304 295 296 288 282